Time,TemperatureF,DewpointF,PressureIn,WindDirection,WindDirectionDegrees,WindSpeedMPH,WindSpeedGustMPH,Humidity,HourlyPrecipIn,Conditions,Clouds,dailyrainin,SoftwareType,DateUTC
2017-05-24 00:10:00,39.9,18.0,30.05,West,271,0.0,3.0,42,0.00,,,0.00,weatherlink.com 1.10,2017-05-24 06:10:00,
2017-05-24 00:25:00,39.2,19.0,30.04,SW,227,2.0,5.0,45,0.00,,,0.00,weatherlink.com 1.10,2017-05-24 06:25:00,
2017-05-24 00:41:00,39.2,19.0,30.03,WSW,243,0.0,2.0,44,0.00,,,0.00,weatherlink.com 1.10,2017-05-24 06:41:00,
2017-05-24 00:55:00,38.8,19.0,30.02,SW,229,2.0,4.0,46,0.00,,,0.00,weatherlink.com 1.10,2017-05-24 06:55:00,
2017-05-24 01:11:00,38.9,20.0,30.01,SSW,201,1.0,5.0,47,0.00,,,0.00,weatherlink.com 1.10,2017-05-24 07:11:00,
2017-05-24 01:26:00,39.6,21.0,30.00,WSW,240,2.0,5.0,47,0.00,,,0.00,weatherlink.com 1.10,2017-05-24 07:26:00,
2017-05-24 01:41:00,40.4,22.0,29.99,SSW,197,1.0,4.0,48,0.00,,,0.00,weatherlink.com 1.10,2017-05-24 07:41:00,
2017-05-24 01:56:00,40.2,23.0,29.98,SSW,200,2.0,4.0,50,0.00,,,0.00,weatherlink.com 1.10,2017-05-24 07:56:00,
2017-05-24 02:11:00,39.6,23.0,29.98,South,175,1.0,4.0,51,0.00,,,0.00,weatherlink.com 1.10,2017-05-24 08:11:00,
2017-05-24 02:26:00,39.5,22.0,29.97,SW,217,1.0,4.0,50,0.00,,,0.00,weatherlink.com 1.10,2017-05-24 08:26:00,
2017-05-24 02:41:00,40.3,24.0,29.96,WSW,240,0.0,7.0,53,0.00,,,0.00,weatherlink.com 1.10,2017-05-24 08:41:00,
2017-05-24 02:56:00,40.6,25.0,29.94,SW,228,0.0,7.0,55,0.00,,,0.00,weatherlink.com 1.10,2017-05-24 08:56:00,
2017-05-24 03:11:00,41.4,26.0,29.93,South,172,3.0,7.0,55,0.00,,,0.00,weatherlink.com 1.10,2017-05-24 09:11:00,
2017-05-24 03:26:00,42.6,27.0,29.92,NNW,345,1.0,9.0,54,0.00,,,0.00,weatherlink.com 1.10,2017-05-24 09:26:00,
2017-05-24 03:41:00,43.4,27.0,29.91,South,178,1.0,7.0,53,0.00,,,0.00,weatherlink.com 1.10,2017-05-24 09:41:00,
2017-05-24 03:56:00,43.4,28.0,29.90,SSW,213,3.0,10.0,55,0.00,,,0.00,weatherlink.com 1.10,2017-05-24 09:56:00,
2017-05-24 04:11:00,43.6,28.0,29.89,South,183,2.0,11.0,55,0.00,,,0.00,weatherlink.com 1.10,2017-05-24 10:11:00,
2017-05-24 04:26:00,44.2,28.0,29.88,WNW,302,4.0,10.0,54,0.00,,,0.00,weatherlink.com 1.10,2017-05-24 10:26:00,
2017-05-24 04:41:00,44.6,28.0,29.87,WNW,289,2.0,6.0,53,0.00,,,0.00,weatherlink.com 1.10,2017-05-24 10:41:00,
2017-05-24 04:56:00,45.3,28.0,29.86,WNW,299,3.0,10.0,52,0.00,,,0.00,weatherlink.com 1.10,2017-05-24 10:56:00,
2017-05-24 05:11:00,44.8,28.0,29.86,West,267,2.0,8.0,53,0.00,,,0.00,weatherlink.com 1.10,2017-05-24 11:11:00,
2017-05-24 05:26:00,45.0,29.0,29.85,WSW,242,3.0,11.0,54,0.00,,,0.00,weatherlink.com 1.10,2017-05-24 11:26:00,
2017-05-24 05:41:00,44.6,29.0,29.84,SW,225,2.0,9.0,54,0.00,,,0.00,weatherlink.com 1.10,2017-05-24 11:41:00,
2017-05-24 05:56:00,43.7,29.0,29.83,SW,214,1.0,4.0,56,0.00,,,0.00,weatherlink.com 1.10,2017-05-24 11:56:00,
2017-05-24 06:11:00,43.5,29.0,29.82,South,186,3.0,4.0,56,0.00,,,0.00,weatherlink.com 1.10,2017-05-24 12:11:00,
2017-05-24 06:26:00,43.8,29.0,29.82,North,355,5.0,9.0,56,0.00,,,0.00,weatherlink.com 1.10,2017-05-24 12:26:00,
2017-05-24 06:41:00,44.8,30.0,29.82,ENE,65,1.0,7.0,57,0.00,,,0.00,weatherlink.com 1.10,2017-05-24 12:41:00,
2017-05-24 06:57:00,45.4,30.0,29.82,ESE,120,2.0,7.0,55,0.00,,,0.00,weatherlink.com 1.10,2017-05-24 12:57:00,
2017-05-24 07:12:00,46.5,32.0,29.82,NNW,336,4.0,5.0,57,0.00,,,0.00,weatherlink.com 1.10,2017-05-24 13:12:00,